Location: Gollag?dem
(16.8053°N, 80.8024°E)
Time: 06:53:56
(UTC+00:00)

Envisat - Visible Passes

Search period start: 27 January 2022 00:00
Search period end: 06 February 2022 00:00
Orbit: 764 x 766 km, 98.2° (Epoch: 26 January)

Date Brightness Start Highest point End Pass type
(mag) Time Alt. Az. Time Alt. Az. Time Alt. Az.
27 Jan 4.7 00:32:54 10° NW 00:34:42 12° WNW 00:36:29 10° W visible
27 Jan 5.6 22:16:07 10° ENE 22:19:13 16° E 22:22:21 10° SE visible
27 Jan 3.6 23:53:38 10° NNW 23:58:06 32° WNW 00:02:34 10° SW visible
28 Jan 2.8 23:16:18 10° NNE 23:21:22 89° WNW 23:26:27 10° SSW visible
29 Jan 4.5 22:40:01 10° NE 22:44:32 33° E 22:49:04 10° SSE visible
30 Jan 4.4 00:20:08 10° NW 00:23:12 16° WNW 00:26:16 10° WSW visible
30 Jan 5.9 22:05:52 10° ENE 22:07:37 12° E 22:09:21 10° ESE visible
30 Jan 3.2 23:41:47 10° N 23:46:34 43° WNW 23:51:21 10° SSW visible
31 Jan 3.2 23:04:46 10° NNE 23:09:48 68° ESE 23:14:50 10° S visible
01 Feb 5.0 22:28:52 10° NE 22:32:56 24° E 22:36:59 10° SSE visible
02 Feb 4.0 00:07:51 10° NNW 00:11:41 22° WNW 00:15:32 10° WSW visible
02 Feb 2.9 23:30:02 10° N 23:35:01 60° WNW 23:40:00 10° SSW visible
03 Feb 3.8 22:53:20 10° NNE 22:58:13 49° E 23:03:06 10° S visible
04 Feb 4.7 00:35:39 10° WNW 00:36:44 11° WNW 00:37:52 10° W visible
04 Feb 5.5 22:17:56 10° NE 22:21:19 18° E 22:24:42 10° SE visible
04 Feb 3.7 23:55:49 10° NNW 00:00:10 29° WNW 00:04:31 10° SW visible
05 Feb 2.8 23:18:22 10° N 23:23:27 82° WNW 23:28:31 10° SSW visible
